STARLINK-4606, 53632

Orbit data source: Space-Track

STARLINK-4606, 53632 is a payload satellite owned by SpaceX/Seattle (US) in LEO that was launched on Sun, 28 Aug 2022 UTC via an FALCON 9 launch vehicle from the Air Force Eastern Test Range (AFETR). Payload-class satellites include a variety of spacecraft equipped with specific instruments for various scientific and technological missions. These include communications satellites like Starlink; space stations such as the ISS; scientific satellites like the Hubble; Earth observation satellites from companies like Planet Labs, Umbra, and HawkEye 360; GPS; miniature CubeSats for education and research; and military/defense satellites.

Loading next visibility...
Identifier
53632, 2022-104AW
Orbit
LEO
Country
Flag of USUS
Related business
Manufacturer
SpaceX/Seattle
Mission
Operational Commercial Communications
Bus & Motor
STARLINK, Unknown motor
Mass
300 kg wet, ~290 kg dry
Launch date (UTC)
2022-08-28 (3 years ago)
Launch vehicle
FALCON 9
Launch site
Air Force Eastern Test Range (AFETR)
Object type
Payload
Rocket body
Debris
Shape & HBR
Box + 1 Pan, 10.1 m
Radar Cross Section
13.562 m², Large (>1 m²)

Expand to show TLE details & history
Last TLE update: 1 day ago

TLE from 1 day ago
0 STARLINK-4606
1 53632U 22104AW  26036.28603284  .00000105  00000-0  24669-4 0  9995
2 53632  53.2189   9.5723 0001361  89.6611 270.4537 15.08835256191335
Epoch: 2026-02-05T06:51Z
TLE epoch observation values (Epoch: 2026-02-05T06:51:53.237Z)
Latitude
-0.00003°
Longitude
131.16001°
Altitude
540.648 km
Speed
7.593 km/s
True Right ascension
00h 38m 17s
True Declination
0° 00' 00"
Sunlit
Object was in daylight at epoch
Visualization orbit readout
Latitude
Unknown
Longitude
Unknown
Altitude
Unknown
Speed
Unknown
Apparent Right ascension
Unknown
Apparent Declination
Unknown
Sunlit
N/A
Visualization observer readout
Local Sidereal Time
12:05:26
Azimuth
Unknown
Elevation
Unknown
Doppler factor
Unknown
Orbital elements
Apogee altitude
540.944 km
Perigee altitude
539.061 km
Semi-major axis
6,918.14 km
Eccentricity
0.00014
Inclination
53.2189°
RAAN
9.5723°
Arg. of periapsis
89.6611°
True anomaly
270.4381°
Mean anomaly
270.4537°
Eccentric anomaly
270.4459°
Mean motion
3.77189 °/min
Orbital period
95.44 mins
BSTAR
0.000024669
Loading maneuver chart data...
Computing Atmospheric mass density...
Loading historical data...
Loading historical data...
Loading historical data...
Loading historical data...
Loading historical data...
Loading historical data...
Loading historical data...

Documentation

Showing up to 5 results
|